Location: Natural Bridges National Monument
(37.6093°N, 109.9767°W)
Time: 17:57:02
(UTC-06:00)

Daily predictions for brighter satellites

Satellite Brightness Start Highest point End
(mag) Time Altitude Azimuth Time Altitude Azimuth Time Altitude Azimuth
H-2A R/B 3.8 19:45:54 10° SSW 19:49:42 31° SE 20:04:04 10° E
Cosmos 2298 Rocket 4.0 19:54:51 10° SSW 20:00:08 79° ESE 20:05:28 10° NNE
Cosmos 2098 4.3 19:59:34 10° S 20:03:02 88° ESE 20:06:03 10° N
Cosmos 2082 Rocket 4.0 20:01:48 10° NNE 20:04:30 13° NE 20:07:10 10° ENE
CZ-3B DEB 3.4 19:52:40 10° SW 20:06:22 88° NW 20:12:25 10° NE
Meteor 2-5 Rocket 3.8 20:00:49 10° N 20:06:35 81° E 20:12:24 10° S
Cosmos 1766 3.8 20:04:05 10° SSE 20:07:39 37° E 20:11:15 10° NNE
Tiangong 1 1.6 20:06:04 10° WNW 20:08:55 43° NNE 20:11:36 11° E
Cosmos 405 3.6 20:07:27 10° SSW 20:10:56 61° W 20:14:25 10° N
COSMOS 2406 3.4 20:09:48 10° NNW 20:15:34 80° WSW 20:21:15 10° SSE
RESURS DK-1 3.0 20:14:04 10° N 20:17:55 36° ENE 20:21:44 10° SE
Cosmos 1934 Rocket 3.9 20:12:26 10° S 20:18:30 65° E 20:24:31 10° NNE
USA 186 3.3 20:21:39 11° ENE 20:21:39 11° ENE 20:22:06 10° NE
Cosmos 1844 4.1 20:19:24 10° SSW 20:25:09 73° WNW 20:30:58 10° NNE
Cosmos 1812 Rocket 3.8 20:29:49 10° SSW 20:34:13 72° W 20:38:37 10° N
CZ-2D R/B 3.4 20:33:20 10° SSE 20:37:04 50° ENE 20:40:50 10° N
Cosmos 1674 4.4 20:35:49 10° NE 20:37:53 16° ENE 20:37:53 16° ENE
GP-B 4.1 20:35:49 16° SE 20:38:24 27° E 20:42:07 10° NNE
Resurs 01 Rocket 1.5 20:36:51 10° SSE 20:41:15 82° ENE 20:45:41 10° N
Spot 2 Rocket 3.4 20:36:27 10° SSE 20:41:32 77° ENE 20:46:39 10° N
Cosmos 1805 3.4 20:38:56 10° S 20:42:41 50° E 20:46:28 10° NNE
Cosmos 1076 Rocket 4.1 20:43:44 10° NNE 20:47:39 35° ENE 20:49:18 25° ESE
USA 215 3.3 20:42:29 10° NE 20:48:53 55° SE 20:55:14 10° SSW
Delta 2 Rocket 3.9 20:46:33 10° W 20:51:08 52° SSW 20:53:08 27° SE
Cosmos 1766 Rocket 4.4 20:48:35 10° NNE 20:52:31 30° ENE 20:53:17 28° E
ALOS 3.3 20:48:20 10° S 20:52:50 47° W 20:57:20 10° NNW
CZ-4B DEB 3.8 20:55:19 28° NE 20:55:19 28° NE 20:57:29 10° N
SAR-Lupe-4 3.5 20:54:48 28° SE 20:56:26 59° ENE 20:59:58 10° N
Cosmos 1470 4.5 20:58:35 19° NE 20:58:35 19° NE 21:00:07 10° NNE
Cosmos 1605 Rocket 4.0 20:52:06 10° S 20:58:20 88° W 21:04:43 10° N
CZ-3 Stage 3 3.9 20:08:17 10° WSW 20:58:34 65° S 21:03:52 25° ESE
Cosmos 2100 Rocket 4.4 20:52:56 10° SSE 20:58:39 38° E 21:04:26 10° NNE
Helios 1B rocket 2.3 20:54:44 10° NNE 20:58:51 63° ESE 21:02:55 10° S
Envisat 3.4 20:57:27 27° ESE 20:59:34 40° ENE 21:04:18 10° N
BREEZE-M DEB (TANK) 2.9 20:58:12 10° SW 21:01:13 55° SE 21:10:01 10° ENE
Yuri Rocket 4.5 20:58:46 10° WSW 21:02:01 22° S 21:03:03 20° SSE
Helios 1A 2.9 21:00:31 25° SSE 21:02:51 66° ENE 21:07:01 10° N
In-Cosmos 22 4.1 20:59:15 10° N 21:04:34 82° W 21:09:50 10° S
Cosmos 1125 Rocket 3.4 21:01:20 10° S 21:06:29 69° ESE 21:11:40 10° NNE
Lacrosse 4 Rocket 4.4 21:04:52 10° W 21:07:22 16° NW 21:09:53 10° NNW
Cosmos-2242 3.4 21:10:06 40° ENE 21:10:06 40° ENE 21:13:39 10° NNE
Cosmos 2344 4.4 21:04:27 10° SW 21:11:55 54° NW 21:20:18 10° NNE
Cosmos 1048 Rocket 4.2 21:07:41 10° N 21:12:38 47° ENE 21:13:42 41° ESE
Cosmos 1758 3.4 21:09:57 10° SSW 21:13:54 75° W 21:17:54 10° N
SAR-Lupe-1 4.0 21:15:11 52° S 21:15:59 87° WSW 21:19:34 10° NNW
Spot 1 4.2 21:13:50 21° S 21:16:53 84° WSW 21:21:44 10° NNW
Cosmos 2278 Rocket 3.2 21:11:49 10° SW 21:17:16 47° WNW 21:22:46 10° N
Cosmos 1802 Rocket 4.3 21:15:45 35° SE 21:17:23 42° E 21:23:06 10° NNE
Cosmos 1833 Rocket 3.0 21:12:19 10° N 21:17:40 43° ENE 21:18:39 40° E
Lacrosse 5 3.3 21:15:17 10° WSW 21:19:59 38° NW 21:24:43 10° NNE
ERS-1 Rocket 3.6 21:23:28 36° ENE 21:23:28 36° ENE 21:27:44 10° N
Cosmos 1953 2.7 21:19:21 10° SSW 21:23:23 63° W 21:27:25 10° N
Meteor 1-4 Rocket 3.1 21:20:12 10° SSW 21:23:37 55° W 21:27:03 10° N
Cosmos 1939 Rocket 3.1 21:24:04 55° NE 21:24:04 55° NE 21:27:49 10° N
Meteor 1-29 3.3 21:22:54 10° N 21:26:21 66° WNW 21:27:30 38° SW
Cosmos 2061 Rocket 4.0 21:23:18 23° SSE 21:27:17 57° E 21:33:33 10° NNE
COSMOS 2487 3.8 21:26:01 10° N 21:28:08 32° N 21:28:08 32° N
Cosmos 2297 3.7 21:25:03 10° SSW 21:30:45 82° WNW 21:36:32 10° NNE
Timation 2 Rocket 4.0 21:27:47 10° NNW 21:33:59 56° ENE 21:34:55 51° E
Cosmos 1818 3.4 21:29:42 10° NNW 21:35:10 84° ENE 21:36:09 61° SE
ATLAS 5 CENTAUR R/B 2.5 21:32:19 10° SSW 21:35:09 37° S 21:35:09 37° S
Tiangong 1 3.7 21:42:03 10° W 21:43:02 18° W 21:43:02 18° W
Cosmos 1269 Rocket 4.0 21:41:43 10° NNW 21:47:01 80° WSW 21:47:43 67° S
Cosmos 1408 Rocket 3.8 21:42:51 10° NNW 21:47:17 65° W 21:47:32 64° WSW
Cosmos 1271 Rocket 4.3 21:49:53 29° N 21:49:53 29° N 21:51:59 10° N
Lacrosse 5 rocket 3.4 21:45:03 10° NNW 21:46:35 17° N 21:46:35 17° N
Cosmos 2082 Rocket 2.0 21:43:40 10° NNW 21:49:23 90° NNE 21:49:57 74° SSE
Cosmos 1459 Rocket 4.0 21:49:24 10° S 21:55:41 78° W 22:01:55 10° N
Cosmos 2173 Rocket 4.0 21:54:35 19° SSW 21:59:05 75° W 22:05:21 10° N
ARGOS 4.4 22:10:50 30° NNE 22:10:50 30° NNE 22:13:43 10° N
Cosmos 2016 Rocket 4.4 22:30:07 57° W 22:30:30 58° W 22:36:36 10° N
USA 215 4.2 22:25:38 10° NE 22:31:44 43° NW 22:37:48 10° WSW
H-2A R/B 4.1 22:35:56 21° N 22:35:56 21° N 22:37:45 10° N
USA 267 4.1 23:04:45 44° NNW 23:04:45 44° NNW 23:09:09 10° NW
